Weather History for KALM - May, 2013

Change the Weather History Date:

Monday, May 6, 2013

  Actual Average Record
Temperature  
Mean Temperature 68 °F -  
Max Temperature 80 °F 80 °F 95 °F (1997)
Min Temperature 57 °F 52 °F 37 °F (1953)
Cooling Degree Days 4    
Growing Degree Days 18 (Base 50)    
Moisture  
Dew Point 25 °F    
Average Humidity 20    
Maximum Humidity 29    
Minimum Humidity 16    
Precipitation  
Precipitation 0.00 in - - ()
Sea Level Pressure  
Sea Level Pressure 30.02 in    
Wind  
Wind Speed 7 mph (WSW)    
Max Wind Speed 18 mph    
Max Gust Speed 30 mph    
Visibility 10 miles    
Events      
Averages and records for this station are not official NWS values.
T = Trace of Precipitation, MM = Missing Value Source: NWS Daily Summary

Daily Weather History Graph

Daily Weather History Graph

Search for Another Location

Airport or City:

Trip Planner

Search our weather history database for the weather conditions in past years. The results will help you decide how hot, cold, wet, or windy it might be!

Date:

Astronomy

May. 06, 2013 Rise Set
Actual Time 6:11 AM MDT 7:49 PM MDT
Civil Twilight 5:45 AM MDT 8:16 PM MDT
Nautical Twilight 5:13 AM MDT 8:48 PM MDT
Astronomical Twilight 4:39 AM MDT 9:22 PM MDT
Moon 4:05 AM MDT (5/6) 5:00 PM MDT (5/6)
Length of Visible Light 14h 31m
Length of Day
13h 37m
Waning Crescent, 10% of the Moon is Illuminated
May 6
Waning Crescent
May 9
New
May 17
First Quarter
May 24
Full
May 31
Last Quarter

Hourly Weather History & Observations

Time (MDT) Temp. Dew Point Humidity Pressure Visibility Wind Dir Wind Speed Gust Speed Precip Events Conditions
12:15 AM 68.0 °F 21.2 °F 17% 30.00 in 10.0 mi NNW 3.5 mph - N/A   Scattered Clouds
12:35 AM 66.2 °F 19.4 °F 17% 30.00 in 10.0 mi South 5.8 mph 16.1 mph N/A   Mostly Cloudy
12:55 AM 62.6 °F 21.2 °F 20% 30.00 in 10.0 mi East 9.2 mph - N/A   Partly Cloudy
1:15 AM 66.2 °F 19.4 °F 17% 30.00 in 10.0 mi ENE 3.5 mph - N/A   Clear
1:35 AM 64.4 °F 21.2 °F 19% 29.99 in 10.0 mi North 4.6 mph - N/A   Partly Cloudy
1:55 AM 66.2 °F 19.4 °F 17% 29.99 in 10.0 mi NW 4.6 mph - N/A   Scattered Clouds
2:15 AM 64.4 °F 19.4 °F 18% 29.98 in 10.0 mi Calm Calm - N/A   Mostly Cloudy
2:35 AM 69.8 °F 23.0 °F 17% 29.97 in 10.0 mi South 12.7 mph - N/A   Mostly Cloudy
2:55 AM 69.8 °F 23.0 °F 17% 29.97 in 10.0 mi SSE 18.4 mph - N/A   Partly Cloudy
3:15 AM 69.8 °F 23.0 °F 17% 29.97 in 10.0 mi South 12.7 mph - N/A   Mostly Cloudy
3:35 AM 68.0 °F 21.2 °F 17% 29.98 in 10.0 mi North 10.4 mph - N/A   Overcast
3:55 AM 64.4 °F 19.4 °F 18% 30.00 in 10.0 mi NNE 10.4 mph - N/A   Overcast
4:15 AM 62.6 °F 17.6 °F 18% 30.00 in 10.0 mi NNE 10.4 mph - N/A   Mostly Cloudy
4:35 AM 62.6 °F 17.6 °F 18% 30.00 in 10.0 mi NE 9.2 mph - N/A   Partly Cloudy
4:55 AM 62.6 °F 17.6 °F 18% 30.00 in 10.0 mi NNE 8.1 mph - N/A   Mostly Cloudy
5:15 AM 62.6 °F 17.6 °F 18% 29.99 in 10.0 mi NNE 9.2 mph - N/A   Overcast
5:35 AM 62.6 °F 17.6 °F 18% 29.98 in 10.0 mi NNE 5.8 mph - N/A   Scattered Clouds
5:55 AM 59.0 °F 17.6 °F 20% 29.98 in 10.0 mi Calm Calm - N/A   Partly Cloudy
6:15 AM 59.0 °F 17.6 °F 20% 29.99 in 10.0 mi SW 6.9 mph - N/A   Clear
6:35 AM 59.0 °F 17.6 °F 20% 30.02 in 10.0 mi SW 10.4 mph - N/A   Clear
6:55 AM 60.8 °F 19.4 °F 20% 30.04 in 10.0 mi SW 11.5 mph - N/A   Partly Cloudy
7:15 AM 62.6 °F 21.2 °F 20% 30.06 in 10.0 mi SSW 13.8 mph 21.9 mph N/A   Scattered Clouds
7:35 AM 64.4 °F 21.2 °F 19% 30.06 in 10.0 mi South 15.0 mph - N/A   Clear
7:55 AM 64.4 °F 23.0 °F 21% 30.08 in 10.0 mi South 10.4 mph - N/A   Clear
8:15 AM 64.4 °F 23.0 °F 21% 30.08 in 10.0 mi SE 8.1 mph - N/A   Clear
8:35 AM 66.2 °F 23.0 °F 19% 30.08 in 10.0 mi South 5.8 mph - N/A   Clear
8:55 AM 66.2 °F 23.0 °F 19% 30.08 in 10.0 mi South 5.8 mph - N/A   Clear
9:15 AM 66.2 °F 24.8 °F 21% 30.07 in 10.0 mi Calm Calm - N/A   Partly Cloudy
9:35 AM 66.2 °F 30.2 °F 26% 30.08 in 10.0 mi Calm Calm - N/A   Partly Cloudy
9:55 AM 66.2 °F 28.4 °F 24% 30.09 in 10.0 mi WNW 4.6 mph - N/A   Mostly Cloudy
10:15 AM 68.0 °F 28.4 °F 23% 30.09 in 10.0 mi NNE 4.6 mph - N/A   Mostly Cloudy
10:35 AM 66.2 °F 32.0 °F 28% 30.09 in 10.0 mi Calm Calm - N/A   Mostly Cloudy
10:55 AM 69.8 °F 32.0 °F 25% 30.09 in 10.0 mi North 3.5 mph - N/A   Mostly Cloudy
11:15 AM 68.0 °F 32.0 °F 26% 30.08 in 10.0 mi NW 5.8 mph - N/A   Mostly Cloudy
11:35 AM 71.6 °F 32.0 °F 23% 30.07 in 10.0 mi South 5.8 mph 18.4 mph N/A   Partly Cloudy
11:55 AM 71.6 °F 32.0 °F 23% 30.08 in 10.0 mi NW 6.9 mph - N/A   Scattered Clouds
12:15 PM 71.6 °F 32.0 °F 23% 30.07 in 10.0 mi WSW 6.9 mph - N/A   Mostly Cloudy
12:35 PM 71.6 °F 32.0 °F 23% 30.06 in 10.0 mi Calm Calm - N/A   Scattered Clouds
12:55 PM 73.4 °F 32.0 °F 22% 30.05 in 10.0 mi SSW 8.1 mph - N/A   Scattered Clouds
1:15 PM 75.2 °F 32.0 °F 21% 30.04 in 10.0 mi SW 11.5 mph 19.6 mph N/A   Scattered Clouds
1:35 PM 75.2 °F 32.0 °F 21% 30.03 in 10.0 mi West 6.9 mph 25.3 mph N/A   Partly Cloudy
1:55 PM 77.0 °F 32.0 °F 19% 30.03 in 10.0 mi WSW 13.8 mph 29.9 mph N/A   Partly Cloudy
2:15 PM 77.0 °F 28.4 °F 17% 30.02 in 10.0 mi SSW 12.7 mph 20.7 mph N/A   Scattered Clouds
2:35 PM 77.0 °F 28.4 °F 17% 30.01 in 10.0 mi WSW 13.8 mph 25.3 mph N/A   Partly Cloudy
2:55 PM 77.0 °F 28.4 °F 17% 30.01 in 10.0 mi WSW 16.1 mph 26.5 mph N/A   Scattered Clouds
3:15 PM 75.2 °F 30.2 °F 19% 30.00 in 10.0 mi West 12.7 mph 20.7 mph N/A   Scattered Clouds
3:35 PM 77.0 °F 30.2 °F 18% 30.00 in 10.0 mi WSW 10.4 mph 21.9 mph N/A   Scattered Clouds
3:55 PM 80.6 °F 30.2 °F 16% 29.99 in 10.0 mi West 12.7 mph 24.2 mph N/A   Mostly Cloudy
4:15 PM 77.0 °F 28.4 °F 17% 29.98 in 10.0 mi SW 12.7 mph 25.3 mph N/A   Partly Cloudy
4:55 PM 77.0 °F 28.4 °F 17% 29.98 in 10.0 mi West 17.3 mph 24.2 mph N/A   Partly Cloudy
5:15 PM 77.0 °F 28.4 °F 17% 29.98 in 10.0 mi West 12.7 mph 18.4 mph N/A   Clear
5:35 PM 77.0 °F 28.4 °F 17% 29.98 in 10.0 mi West 11.5 mph 19.6 mph N/A   Clear
5:55 PM 77.0 °F 28.4 °F 17% 29.98 in 10.0 mi WSW 11.5 mph 19.6 mph N/A   Clear
6:15 PM 77.0 °F 28.4 °F 17% 29.98 in 10.0 mi WSW 12.7 mph 20.7 mph N/A   Partly Cloudy
6:35 PM 77.0 °F 28.4 °F 17% 29.97 in 10.0 mi West 12.7 mph 18.4 mph N/A   Partly Cloudy
6:55 PM 75.2 °F 28.4 °F 18% 29.98 in 10.0 mi West 11.5 mph - N/A   Clear
7:15 PM 75.2 °F 28.4 °F 18% 29.98 in 10.0 mi WSW 9.2 mph - N/A   Clear
7:35 PM 75.2 °F 26.6 °F 17% 29.99 in 10.0 mi West 8.1 mph - N/A   Clear
7:55 PM 71.6 °F 28.4 °F 20% 29.99 in 10.0 mi WSW 5.8 mph - N/A   Clear
8:15 PM 68.0 °F 26.6 °F 21% 30.00 in 10.0 mi WSW 3.5 mph - N/A   Clear
8:35 PM 66.2 °F 26.6 °F 23% 30.01 in 10.0 mi Calm Calm - N/A   Clear
8:55 PM 66.2 °F 26.6 °F 23% 30.01 in 10.0 mi Calm Calm - N/A   Clear
9:15 PM 66.2 °F 26.6 °F 23% 30.02 in 10.0 mi Calm Calm - N/A   Clear
9:35 PM 66.2 °F 26.6 °F 23% 30.02 in 10.0 mi SW 3.5 mph - N/A   Unknown
9:55 PM 66.2 °F 26.6 °F 23% 30.02 in 10.0 mi WSW 3.5 mph - N/A   Clear
10:15 PM 64.4 °F 26.6 °F 24% 30.02 in 10.0 mi WSW 4.6 mph - N/A   Clear
10:35 PM 60.8 °F 24.8 °F 25% 30.02 in 10.0 mi Calm Calm - N/A   Clear
10:55 PM 57.2 °F 24.8 °F 29% 30.02 in 10.0 mi SE 4.6 mph - N/A   Clear
11:15 PM 59.0 °F 24.8 °F 27% 30.02 in 10.0 mi Calm Calm - N/A   Clear
11:35 PM 62.6 °F 26.6 °F 26% 30.02 in 10.0 mi North 4.6 mph - N/A   Clear
11:55 PM 60.8 °F 26.6 °F 27% 30.02 in 10.0 mi Calm Calm - N/A   Clear